Find Starlink 31323

NORAD ID: 58882 Int'l Des: 2024-020 Owner: SPXS Country: US Constellation: starlink operational
LEOCIRCULAR

リアルタイム位置

3D地球を読み込み中...

Starlink 31323について

説明を読み込み中...

次回通過

Passes for default location (London). Set your location on the main map for personalized predictions.

高度履歴

Loading altitude history...

軌道要素

1 58882U 24020G 26120.16584012 .00001144 00000-0 50761-4 0 9990
2 58882 53.1607 83.2256 0001363 97.1074 263.0082 15.30191854125952
Epoch: Apr 30, 2026 • Age: 10 hours

現在のステータス

高度 493.0 km
速度 7.62 km/s
衛星直下点 -49.30°S, 114.5°W
打ち上げ日 Jan 29, 2024
運用期間 2.2 years
タイプ internet

技術仕様

分類 Payload
質量 730.00 kg
乾燥質量 700.00 kg
総質量 730.00 kg
長さ 0.30 m
直径 4.10 m
スパン 29.00 m
形状 Box + pan
製造者 SPXS
バスタイプ Starlink V2M
フェーズステータス In Orbit
所有者/国 SPXS/US

Most Searched